EW4120 Weather Reports


time (UTC)temp
F
wind
direction
speed
knots
gust
knots
rain 1hr
in
rain 24hr
in
rain mn
in
humidity
%
barometer
mb
20260905025517 73 0.0 0.0 0.00 0.03 0.03 92 1016.1
20260905024517 73 0.0 0.0 0.00 0.03 0.03 92 1016.3
20260905023535 73 0.0 0.0 0.00 0.03 0.03 92 1016.3
20260905022617 73 0.0 0.0 0.00 0.03 0.03 91 1016.3
20260905021517 74 0.0 0.0 0.00 0.03 0.03 91 1016.3
20260905020557 74 0.0 0.0 0.00 0.03 0.03 90 1016.2
20260905015537 74 0.0 0.0 0.00 0.03 0.03 90 1016.1
20260905014637 74 0.0 0.0 0.00 0.03 0.03 89 1015.8
20260905013517 75 0.0 0.0 0.00 0.03 0.03 88 1015.6
20260905012517 75 0.0 0.0 0.00 0.03 0.03 88 1015.5
20260905011517 76 0.0 0.0 0.00 0.03 0.03 87 1015.5
20260905010557 76 0.0 0.0 0.00 0.03 0.03 86 1015.5
20260905004537 77 0.0 0.0 0.00 0.03 0.03 84 1015.6
20260905003517 77 0.0 0.0 0.00 0.03 0.03 84 1015.6
20260905002537 78 0.0 0.0 0.00 0.03 0.03 83 1015.8
20260905001537 78 0.0 0.0 0.00 0.03 0.03 82 1016.1
20260905000557 79 0.0 0.0 0.00 0.03 0.03 82 1016.4
20260904235637 79 0.0 0.9 0.00 0.03 0.03 80 1016.8
20260904234537 79 0.0 1.7 0.00 0.03 0.03 79 1016.7
20260904233517 80 45 2.6 7.0 0.00 0.03 0.03 77 1016.9
20260904232517 81 23 0.9 3.5 0.00 0.03 0.03 71 1016.7
20260904231517 81 45 0.9 5.2 0.00 0.03 0.03 69 1016.2
20260904230517 82 293 0.9 5.2 0.00 0.03 0.03 68 1016.3
20260904225517 83 45 0.9 6.1 0.00 0.03 0.03 67 1016.5
20260904224617 85 23 2.6 7.0 0.00 0.03 0.03 67 1016.6
20260904223516 87 45 1.7 10.4 0.00 0.03 0.03 65 1016.7
20260904222517 91 45 0.9 4.3 0.00 0.03 0.03 63 1016.5
20260904221537 94 23 0.9 2.6 0.00 0.03 0.03 62 1016.2
20260904220516 93 0.0 0.9 0.00 0.03 0.03 64 1015.9
20260904215537 93 0.0 0.0 0.00 0.03 0.03 64 1015.5
20260904214516 93 0.0 1.7 0.00 0.03 0.03 61 1015.3
20260904213537 93 0.0 0.9 0.00 0.03 0.03 62 1015.1
20260904212516 94 0.0 0.0 0.00 0.03 0.03 61 1015.4
20260904211516 95 0.0 0.0 0.00 0.03 0.03 57 1015.5
20260904210536 96 0.0 0.0 0.00 0.03 0.03 55 1015.7
20260904205617 98 248 0.9 2.6 0.00 0.03 0.03 51 1015.6
20260904204516 100 315 0.9 1.7 0.00 0.03 0.03 50 1015.6
20260904203516 99 45 0.9 2.6 0.01 0.04 0.03 49 1015.3
20260904202516 99 113 1.7 6.1 0.01 0.04 0.03 51 1015.4
20260904201516 100 315 0.9 4.3 0.01 0.04 0.03 54 1015.5
20260904200536 98 113 0.9 4.3 0.01 0.04 0.03 56 1015.6
20260904195556 99 113 0.9 1.7 0.01 0.04 0.03 52 1015.8
20260904194617 98 315 0.9 4.3 0.01 0.05 0.03 52 1016.0
20260904193556 98 248 1.7 3.5 0.00 0.04 0.02 50 1016.1
20260904192536 98 315 0.9 4.3 0.00 0.04 0.02 53 1016.4
20260904191656 98 113 0.9 5.2 0.00 0.04 0.02 51 1016.7
20260904190636 97 315 0.9 3.5 0.00 0.04 0.02 52 1016.6
20260904185536 97 315 1.7 4.3 0.00 0.04 0.02 49 1016.9
20260904184556 97 0.0 1.7 0.00 0.04 0.02 54 1017.1
20260904183516 97 293 0.9 3.5 0.00 0.04 0.02 53 1017.3
20260904182556 96 293 0.9 4.3 0.00 0.04 0.02 54 1017.4
20260904181516 96 293 0.9 3.5 0.00 0.04 0.02 58 1017.5
20260904175516 95 315 0.9 2.6 0.00 0.04 0.02 58 1017.7
20260904174516 95 0.0 1.7 0.00 0.04 0.02 61 1017.8
20260904173536 95 0.0 1.7 0.00 0.04 0.02 60 1017.9
20260904172516 94 248 0.9 3.5 0.00 0.04 0.02 63 1017.9
20260904171536 94 23 0.9 4.3 0.00 0.04 0.02 62 1018.0
20260904170536 93 293 0.9 2.6 0.00 0.04 0.02 65 1018.1
20260904165556 93 248 0.9 3.5 0.00 0.04 0.02 64 1018.2
20260904164536 92 45 0.9 2.6 0.00 0.04 0.02 68 1018.3
20260904163516 92 0.0 1.7 0.00 0.04 0.02 69 1018.4
20260904162516 92 270 0.9 2.6 0.00 0.04 0.02 70 1018.6
20260904161536 91 315 0.9 4.3 0.00 0.04 0.02 71 1018.7
20260904160556 90 0.0 0.9 0.00 0.04 0.02 73 1018.8
20260904155536 90 293 0.9 3.5 0.00 0.04 0.02 72 1018.8
20260904154516 89 0.0 1.7 0.00 0.04 0.02 74 1018.9
20260904153516 89 23 0.9 3.5 0.00 0.04 0.02 74 1018.8
20260904152516 88 45 0.9 5.2 0.00 0.04 0.02 76 1018.9
20260904151516 88 0.0 0.9 0.00 0.04 0.02 77 1018.9
20260904150516 87 0.0 0.9 0.00 0.04 0.02 77 1018.9
20260904145516 87 0.0 0.9 0.00 0.04 0.02 79 1019.0
20260904144556 86 0.0 1.7 0.00 0.04 0.02 79 1019.0
20260904143516 85 0.0 2.6 0.00 0.04 0.02 80 1018.9
20260904142516 85 0.0 1.7 0.00 0.04 0.02 82 1019.2
20260904141516 84 0.0 1.7 0.00 0.04 0.02 83 1019.0
20260904140516 83 0.0 2.6 0.00 0.04 0.02 85 1019.0
20260904135536 82 0.0 0.9 0.00 0.04 0.02 87 1019.0
20260904134516 81 0.0 3.5 0.01 0.04 0.02 88 1018.8
20260904133516 81 0.0 1.7 0.01 0.04 0.02 89 1018.9
20260904132556 80 0.0 1.7 0.01 0.04 0.02 90 1019.0
20260904131536 79 0.0 0.9 0.01 0.04 0.02 93 1019.1
20260904130536 78 0.0 0.9 0.01 0.05 0.02 95 1019.1
20260904125516 76 0.0 0.0 0.01 0.05 0.02 97 1019.0
20260904124515 75 0.0 1.7 0.00 0.04 0.01 99 1019.0
20260904123616 75 0.0 0.9 0.00 0.04 0.01 100 1019.1
20260904122556 74 0.0 0.0 0.00 0.04 0.01 100 1019.1
20260904121556 73 0.0 0.0 0.00 0.04 0.01 99 1018.9
20260904120515 73 0.0 0.0 0.00 0.04 0.01 99 1018.8
20260904115535 72 0.0 0.0 0.00 0.04 0.01 99 1018.9
20260904114636 72 0.0 0.0 0.00 0.04 0.01 99 1018.9
20260904113515 71 0.0 0.0 0.00 0.04 0.01 99 1018.7
20260904112616 71 0.0 0.0 0.00 0.04 0.01 99 1018.7
20260904111515 71 0.0 0.0 0.00 0.04 0.01 98 1018.6
20260904105535 71 0.0 0.0 0.00 0.04 0.01 98 1018.7
20260904104515 71 0.0 0.0 0.00 0.04 0.01 98 1018.6
20260904103515 71 0.0 0.0 0.00 0.04 0.01 98 1018.6
20260904102657 71 0.0 0.0 0.00 0.04 0.01 98 1018.6
20260904101515 71 0.0 0.0 0.00 0.04 0.01 98 1018.7
20260904100515 71 0.0 0.0 0.00 0.04 0.01 98 1018.6
20260904095515 72 0.0 0.0 0.00 0.04 0.01 98 1018.6
20260904094535 72 0.0 0.0 0.00 0.04 0.01 98 1018.6
20260904093615 72 0.0 0.0 0.00 0.04 0.01 98 1018.4
20260904092515 72 0.0 0.0 0.00 0.04 0.01 98 1018.4
20260904091515 72 0.0 0.0 0.00 0.04 0.01 98 1018.3
20260904090515 72 0.0 0.0 0.00 0.04 0.01 98 1018.1
20260904085515 72 0.0 0.0 0.00 0.04 0.01 98 1017.9
20260904084636 72 0.0 0.0 0.00 0.05 0.01 98 1017.9
20260904083517 72 0.0 0.0 0.00 0.05 0.01 98 1017.8
20260904082517 72 0.0 0.0 0.00 0.05 0.01 98 1017.7
20260904081617 72 0.0 0.0 0.00 0.05 0.01 98 1017.7
20260904075517 73 0.0 0.0 0.00 0.05 0.01 98 1017.8
20260904074557 73 0.0 0.0 0.00 0.05 0.01 98 1017.9
20260904073659 73 0.0 0.0 0.00 0.05 0.01 98 1017.8
20260904072517 73 0.0 0.0 0.01 0.05 0.01 98 1017.9
20260904071659 73 0.0 0.0 0.01 0.05 0.01 98 1018.1
20260904070617 73 0.0 0.0 0.01 0.05 0.01 97 1018.1
20260904065517 73 0.0 0.0 0.01 0.05 0.01 97 1018.3
20260904064537 73 0.0 0.0 0.01 0.05 0.01 97 1018.4
20260904063517 73 0.0 0.0 0.01 0.05 0.01 97 1018.6
20260904062557 73 0.0 0.0 0.00 0.04 0.00 97 1018.7
20260904061557 73 0.0 0.0 0.00 0.04 0.00 97 1018.7
20260904060537 73 0.0 0.0 0.00 0.04 0.00 97 1018.9
20260904055517 73 0.0 0.0 0.00 0.04 0.00 97 1018.9
20260904054517 73 0.0 0.0 0.00 0.04 0.00 97 1019.1
20260904053517 73 0.0 0.0 0.00 0.04 0.00 97 1019.1
20260904052517 74 0.0 0.0 0.00 0.04 0.00 96 1019.2
20260904051517 74 0.0 0.0 0.00 0.04 0.00 96 1019.3
20260904050517 74 0.0 0.0 0.00 0.04 0.00 96 1019.4
20260904045517 74 0.0 0.0 0.00 0.05 0.00 96 1019.4
20260904044537 74 0.0 0.0 0.00 0.05 0.00 96 1019.4
20260904043517 74 0.0 0.0 0.00 0.05 0.00 96 1019.4
20260904042617 74 0.0 0.0 0.00 0.05 0.00 96 1019.2
20260904041517 74 0.0 0.0 0.00 0.05 0.00 95 1019.1
20260904040537 75 0.0 0.0 0.00 0.05 0.00 95 1018.9
20260904035656 75 0.0 0.0 0.00 0.05 0.05 95 1018.9
20260904034517 75 0.0 0.0 0.00 0.05 0.05 94 1018.9
20260904033537 75 0.0 0.0 0.00 0.05 0.05 94 1019.1
20260904032537 75 0.0 0.0 0.00 0.05 0.05 94 1019.1
20260904031537 75 0.0 0.0 0.00 0.05 0.05 94 1019.1
20260904030537 76 0.0 0.0 0.00 0.05 0.05 94 1019.1